datetime,flow
1910-10-01,370.0
1910-10-02,370.0
1910-10-03,398.0
1910-10-04,378.0
1910-10-05,358.0
1910-10-06,338.0
1910-10-07,350.0
1910-10-08,332.0
1910-10-09,315.0
1910-10-10,303.0
1910-10-11,303.0
1910-10-12,303.0
1910-10-13,303.0
1910-10-14,303.0
1910-10-15,303.0
1910-10-16,352.0
1910-10-17,620.0
1910-10-18,755.0
1910-10-19,640.0
1910-10-20,640.0
1910-10-21,495.0
1910-10-22,430.0
1910-10-23,495.0
1910-10-24,665.0
1910-10-25,665.0
1910-10-26,665.0
1910-10-27,665.0
1910-10-28,620.0
1910-10-29,580.0
1910-10-30,580.0
1910-10-31,580.0
1910-11-01,550.0
1910-11-02,550.0
1910-11-03,550.0
1910-11-04,550.0
1910-11-05,550.0
1910-11-06,550.0
1910-11-07,550.0
1910-11-08,550.0
1910-11-09,550.0
1910-11-10,550.0
1910-11-11,550.0
1910-11-12,550.0
1910-11-13,550.0
1910-11-14,550.0
1910-11-15,550.0
1910-11-16,550.0
1910-11-17,550.0
1910-11-18,550.0
1910-11-19,550.0
1910-11-20,550.0
1910-11-21,550.0
1910-11-22,550.0
1910-11-23,550.0
1910-11-24,550.0
1910-11-25,550.0
1910-11-26,550.0
1910-11-27,550.0
1910-11-28,550.0
1910-11-29,550.0
1910-11-30,550.0
1910-12-01,480.0
1910-12-02,480.0
1910-12-03,480.0
1910-12-04,480.0
1910-12-05,480.0
1910-12-06,480.0
1910-12-07,480.0
1910-12-08,480.0
1910-12-09,480.0
1910-12-10,480.0
1910-12-11,480.0
1910-12-12,480.0
1910-12-13,480.0
1910-12-14,480.0
1910-12-15,480.0
1910-12-16,480.0
1910-12-17,480.0
1910-12-18,480.0
1910-12-19,480.0
1910-12-20,480.0
1910-12-21,480.0
1910-12-22,480.0
1910-12-23,480.0
1910-12-24,480.0
1910-12-25,480.0
1910-12-26,480.0
1910-12-27,480.0
1910-12-28,480.0
1910-12-29,480.0
1910-12-30,480.0
1910-12-31,480.0
1911-01-01,470.0
1911-01-02,470.0
1911-01-03,470.0
1911-01-04,470.0
1911-01-05,470.0
1911-01-06,470.0
1911-01-07,470.0
1911-01-08,470.0
1911-01-09,470.0
1911-01-10,470.0
1911-01-11,470.0
1911-01-12,470.0
1911-01-13,470.0
1911-01-14,470.0
1911-01-15,470.0
1911-01-16,470.0
1911-01-17,470.0
1911-01-18,470.0
1911-01-19,470.0
1911-01-20,470.0
1911-01-21,470.0
1911-01-22,470.0
1911-01-23,470.0
1911-01-24,470.0
1911-01-25,470.0
1911-01-26,470.0
1911-01-27,470.0
1911-01-28,470.0
1911-01-29,470.0
1911-01-30,470.0
1911-01-31,470.0
1911-02-01,460.0
1911-02-02,460.0
1911-02-03,460.0
1911-02-04,460.0
1911-02-05,460.0
1911-02-06,460.0
1911-02-07,460.0
1911-02-08,460.0
1911-02-09,460.0
1911-02-10,460.0
1911-02-11,460.0
1911-02-12,460.0
1911-02-13,460.0
1911-02-14,460.0
1911-02-15,460.0
1911-02-16,460.0
1911-02-17,460.0
1911-02-18,460.0
1911-02-19,460.0
1911-02-20,460.0
1911-02-21,460.0
1911-02-22,460.0
1911-02-23,460.0
1911-02-24,460.0
1911-02-25,460.0
1911-02-26,460.0
1911-02-27,460.0
1911-02-28,460.0
1911-03-01,700.0
1911-03-02,700.0
1911-03-03,700.0
1911-03-04,700.0
1911-03-05,700.0
1911-03-06,700.0
1911-03-07,700.0
1911-03-08,700.0
1911-03-09,700.0
1911-03-10,700.0
1911-03-11,700.0
1911-03-12,700.0
1911-03-13,700.0
1911-03-14,700.0
1911-03-15,700.0
1911-03-16,700.0
1911-03-17,700.0
1911-03-18,700.0
1911-03-19,700.0
1911-03-20,700.0
1911-03-21,700.0
1911-03-22,700.0
1911-03-23,700.0
1911-03-24,700.0
1911-03-25,700.0
1911-03-26,700.0
1911-03-27,700.0
1911-03-28,700.0
1911-03-29,700.0
1911-03-30,700.0
1911-03-31,700.0
1911-04-01,1720.0
1911-04-02,2000.0
1911-04-03,2000.0
1911-04-04,2200.0
1911-04-05,1900.0
1911-04-06,1630.0
1911-04-07,1470.0
1911-04-08,1400.0
1911-04-09,1470.0
1911-04-10,1470.0
1911-04-11,1320.0
1911-04-12,1250.0
1911-04-13,1180.0
1911-04-14,1040.0
1911-04-15,1040.0
1911-04-16,1110.0
1911-04-17,1320.0
1911-04-18,1470.0
1911-04-19,1630.0
1911-04-20,2100.0
1911-04-21,2420.0
1911-04-22,3120.0
1911-04-23,3380.0
1911-04-24,3640.0
1911-04-25,3380.0
1911-04-26,3780.0
1911-04-27,4480.0
1911-04-28,4780.0
1911-04-29,5240.0
1911-04-30,4330.0
1911-05-01,3380.0
1911-05-02,3120.0
1911-05-03,3250.0
1911-05-04,4050.0
1911-05-05,5390.0
1911-05-06,6680.0
1911-05-07,7360.0
1911-05-08,8060.0
1911-05-09,8940.0
1911-05-10,9280.0
1911-05-11,7190.0
1911-05-12,6020.0
1911-05-13,6180.0
1911-05-14,6180.0
1911-05-15,6680.0
1911-05-16,6520.0
1911-05-17,6850.0
1911-05-18,7360.0
1911-05-19,8410.0
1911-05-20,7190.0
1911-05-21,5700.0
1911-05-22,5080.0
1911-05-23,5390.0
1911-05-24,6350.0
1911-05-25,6850.0
1911-05-26,7710.0
1911-05-27,7360.0
1911-05-28,7190.0
1911-05-29,7360.0
1911-05-30,7360.0
1911-05-31,7710.0
1911-06-01,8360.0
1911-06-02,8870.0
1911-06-03,8870.0
1911-06-04,9040.0
1911-06-05,9570.0
1911-06-06,10300.0
1911-06-07,10300.0
1911-06-08,10700.0
1911-06-09,11200.0
1911-06-10,11000.0
1911-06-11,11200.0
1911-06-12,10300.0
1911-06-13,10300.0
1911-06-14,10200.0
1911-06-15,9620.0
1911-06-16,9630.0
1911-06-17,8750.0
1911-06-18,8400.0
1911-06-19,8560.0
1911-06-20,8740.0
1911-06-21,8740.0
1911-06-22,9090.0
1911-06-23,8390.0
1911-06-24,7690.0
1911-06-25,6830.0
1911-06-26,6000.0
1911-06-27,5520.0
1911-06-28,5370.0
1911-06-29,5370.0
1911-06-30,5060.0
1911-07-01,4760.0
1911-07-02,5840.0
1911-07-03,7000.0
1911-07-04,7340.0
1911-07-05,6330.0
1911-07-06,7000.0
1911-07-07,6660.0
1911-07-08,5680.0
1911-07-09,5060.0
1911-07-10,4460.0
1911-07-11,3890.0
1911-07-12,3620.0
1911-07-13,3890.0
1911-07-14,4310.0
1911-07-15,3890.0
1911-07-16,3620.0
1911-07-17,3620.0
1911-07-18,3620.0
1911-07-19,3890.0
1911-07-20,4030.0
1911-07-21,4170.0
1911-07-22,4170.0
1911-07-23,5060.0
1911-07-24,4170.0
1911-07-25,3620.0
1911-07-26,3620.0
1911-07-27,3490.0
1911-07-28,3100.0
1911-07-29,2860.0
1911-07-30,2740.0
1911-07-31,2620.0
1911-08-01,2400.0
1911-08-02,2180.0
1911-08-03,2180.0
1911-08-04,1980.0
1911-08-05,1780.0
1911-08-06,1620.0
1911-08-07,1420.0
1911-08-08,1420.0
1911-08-09,1240.0
1911-08-10,1400.0
1911-08-11,1560.0
1911-08-12,1560.0
1911-08-13,1560.0
1911-08-14,1560.0
1911-08-15,1390.0
1911-08-16,1230.0
1911-08-17,1230.0
1911-08-18,1230.0
1911-08-19,1080.0
1911-08-20,1080.0
1911-08-21,1080.0
1911-08-22,1390.0
1911-08-23,1760.0
1911-08-24,1760.0
1911-08-25,1560.0
1911-08-26,1390.0
1911-08-27,1230.0
1911-08-28,1160.0
1911-08-29,1080.0
1911-08-30,1080.0
1911-08-31,940.0
1911-09-01,940.0
1911-09-02,940.0
1911-09-03,934.0
1911-09-04,1070.0
1911-09-05,918.0
1911-09-06,910.0
1911-09-07,770.0
1911-09-08,770.0
1911-09-09,845.0
1911-09-10,655.0
1911-09-11,710.0
1911-09-12,710.0
1911-09-13,765.0
1911-09-14,765.0
1911-09-15,835.0
1911-09-16,905.0
1911-09-17,772.0
1911-09-18,710.0
1911-09-19,710.0
1911-09-20,710.0
1911-09-21,765.0
1911-09-22,710.0
1911-09-23,800.0
1911-09-24,940.0
1911-09-25,800.0
1911-09-26,745.0
1911-09-27,900.0
1911-09-28,900.0
1911-09-29,900.0
1911-09-30,1290.0
1911-10-01,2820.0
1911-10-02,2940.0
1911-10-03,2350.0
1911-10-04,1920.0
1911-10-05,2010.0
1911-10-06,6250.0
1911-10-07,4470.0
1911-10-08,3350.0
1911-10-09,2980.0
1911-10-10,2730.0
1911-10-11,2420.0
1911-10-12,2310.0
1911-10-13,2200.0
1911-10-14,2000.0
1911-10-15,1900.0
1911-10-16,1800.0
1911-10-17,1630.0
1911-10-18,1630.0
1911-10-19,1550.0
1911-10-20,1400.0
1911-10-21,1180.0
1911-10-22,1180.0
1911-10-23,1320.0
1911-10-24,1470.0
1911-10-25,1400.0
1911-10-26,1320.0
1911-10-27,1470.0
1911-10-28,1470.0
1911-10-29,1470.0
1911-10-30,1400.0
1911-10-31,1180.0
1911-11-01,1180.0
1911-11-02,1320.0
1911-11-03,1250.0
1911-11-04,1040.0
1911-11-05,1180.0
1911-11-06,1400.0
1911-11-07,830.0
1911-11-08,830.0
1911-11-09,830.0
1911-11-10,830.0
1911-11-11,830.0
1911-11-12,830.0
1911-11-13,830.0
1911-11-14,830.0
1911-11-15,830.0
1911-11-16,830.0
1911-11-17,830.0
1911-11-18,830.0
1911-11-19,830.0
1911-11-20,830.0
1911-11-21,700.0
1911-11-22,700.0
1911-11-23,700.0
1911-11-24,700.0
1911-11-25,700.0
1911-11-26,700.0
1911-11-27,700.0
1911-11-28,700.0
1911-11-29,700.0
1911-11-30,700.0
1911-12-01,610.0
1911-12-02,610.0
1911-12-03,610.0
1911-12-04,610.0
1911-12-05,610.0
1911-12-06,610.0
1911-12-07,610.0
1911-12-08,610.0
1911-12-09,610.0
1911-12-10,610.0
1911-12-11,610.0
1911-12-12,610.0
1911-12-13,610.0
1911-12-14,610.0
1911-12-15,610.0
1911-12-16,610.0
1911-12-17,610.0
1911-12-18,610.0
1911-12-19,610.0
1911-12-20,610.0
1911-12-21,610.0
1911-12-22,610.0
1911-12-23,610.0
1911-12-24,610.0
1911-12-25,610.0
1911-12-26,610.0
1911-12-27,610.0
1911-12-28,610.0
1911-12-29,610.0
1911-12-30,610.0
1911-12-31,610.0
1912-01-01,540.0
1912-01-02,540.0
1912-01-03,540.0
1912-01-04,540.0
1912-01-05,540.0
1912-01-06,540.0
1912-01-07,540.0
1912-01-08,540.0
1912-01-09,540.0
1912-01-10,540.0
1912-01-11,540.0
1912-01-12,540.0
1912-01-13,540.0
1912-01-14,540.0
1912-01-15,540.0
1912-01-16,540.0
1912-01-17,540.0
1912-01-18,540.0
1912-01-19,540.0
1912-01-20,540.0
1912-01-21,540.0
1912-01-22,540.0
1912-01-23,540.0
1912-01-24,540.0
1912-01-25,540.0
1912-01-26,540.0
1912-01-27,540.0
1912-01-28,540.0
1912-01-29,540.0
1912-01-30,540.0
1912-01-31,540.0
1912-02-01,500.0
1912-02-02,500.0
1912-02-03,500.0
1912-02-04,500.0
1912-02-05,500.0
1912-02-06,500.0
1912-02-07,500.0
1912-02-08,500.0
1912-02-09,500.0
1912-02-10,500.0
1912-02-11,500.0
1912-02-12,500.0
1912-02-13,500.0
1912-02-14,500.0
1912-02-15,500.0
1912-02-16,500.0
1912-02-17,500.0
1912-02-18,500.0
1912-02-19,500.0
1912-02-20,500.0
1912-02-21,500.0
1912-02-22,500.0
1912-02-23,500.0
1912-02-24,500.0
1912-02-25,500.0
1912-02-26,500.0
1912-02-27,500.0
1912-02-28,500.0
1912-02-29,500.0
1912-03-01,800.0
1912-03-02,800.0
1912-03-03,800.0
1912-03-04,800.0
1912-03-05,800.0
1912-03-06,800.0
1912-03-07,800.0
1912-03-08,800.0
1912-03-09,800.0
1912-03-10,800.0
1912-03-11,800.0
1912-03-12,800.0
1912-03-13,800.0
1912-03-14,800.0
1912-03-15,800.0
1912-03-16,800.0
1912-03-17,800.0
1912-03-18,800.0
1912-03-19,800.0
1912-03-20,800.0
1912-03-21,800.0
1912-03-22,800.0
1912-03-23,800.0
1912-03-24,800.0
1912-03-25,800.0
1912-03-26,800.0
1912-03-27,800.0
1912-03-28,800.0
1912-03-29,800.0
1912-03-30,800.0
1912-03-31,800.0
1912-04-01,1800.0
1912-04-02,1600.0
1912-04-03,1700.0
1912-04-04,2520.0
1912-04-05,2780.0
1912-04-06,2780.0
1912-04-07,2520.0
1912-04-08,2780.0
1912-04-09,3280.0
1912-04-10,4450.0
1912-04-11,4150.0
1912-04-12,3850.0
1912-04-13,3280.0
1912-04-14,2780.0
1912-04-15,2520.0
1912-04-16,2520.0
1912-04-17,2780.0
1912-04-18,2780.0
1912-04-19,2650.0
1912-04-20,2520.0
1912-04-21,2280.0
1912-04-22,2150.0
1912-04-23,2150.0
1912-04-24,2280.0
1912-04-25,3020.0
1912-04-26,2900.0
1912-04-27,2780.0
1912-04-28,2780.0
1912-04-29,3550.0
1912-04-30,3850.0
1912-05-01,4880.0
1912-05-02,5020.0
1912-05-03,4720.0
1912-05-04,4420.0
1912-05-05,3240.0
1912-05-06,2990.0
1912-05-07,3240.0
1912-05-08,4120.0
1912-05-09,5020.0
1912-05-10,4720.0
1912-05-11,4720.0
1912-05-12,5310.0
1912-05-13,4860.0
1912-05-14,4120.0
1912-05-15,4120.0
1912-05-16,4570.0
1912-05-17,6020.0
1912-05-18,7410.0
1912-05-19,8470.0
1912-05-20,8820.0
1912-05-21,9860.0
1912-05-22,10700.0
1912-05-23,10200.0
1912-05-24,10700.0
1912-05-25,11500.0
1912-05-26,11900.0
1912-05-27,11100.0
1912-05-28,10200.0
1912-05-29,10700.0
1912-05-30,12300.0
1912-05-31,11900.0
1912-06-01,10200.0
1912-06-02,10700.0
1912-06-03,11500.0
1912-06-04,12700.0
1912-06-05,12700.0
1912-06-06,12100.0
1912-06-07,11500.0
1912-06-08,11100.0
1912-06-09,11500.0
1912-06-10,10200.0
1912-06-11,9860.0
1912-06-12,8820.0
1912-06-13,8120.0
1912-06-14,7410.0
1912-06-15,7770.0
1912-06-16,7770.0
1912-06-17,7410.0
1912-06-18,6890.0
1912-06-19,6370.0
1912-06-20,5850.0
1912-06-21,6010.0
1912-06-22,6360.0
1912-06-23,7410.0
1912-06-24,7760.0
1912-06-25,8460.0
1912-06-26,8460.0
1912-06-27,8110.0
1912-06-28,7940.0
1912-06-29,7760.0
1912-06-30,7760.0
1912-07-01,7240.0
1912-07-02,6710.0
1912-07-03,6180.0
1912-07-04,5310.0
1912-07-05,4710.0
1912-07-06,4410.0
1912-07-07,4710.0
1912-07-08,5010.0
1912-07-09,4860.0
1912-07-10,4710.0
1912-07-11,4710.0
1912-07-12,4410.0
1912-07-13,4400.0
1912-07-14,4550.0
1912-07-15,4700.0
1912-07-16,4550.0
1912-07-17,4100.0
1912-07-18,3800.0
1912-07-19,3650.0
1912-07-20,3800.0
1912-07-21,3500.0
1912-07-22,3350.0
1912-07-23,3950.0
1912-07-24,3800.0
1912-07-25,3950.0
1912-07-26,4100.0
1912-07-27,3800.0
1912-07-28,3650.0
1912-07-29,3500.0
1912-07-30,3500.0
1912-07-31,3500.0
1912-08-01,2970.0
1912-08-02,2710.0
1912-08-03,2470.0
1912-08-04,2250.0
1912-08-05,2030.0
1912-08-06,1810.0
1912-08-07,1600.0
1912-08-08,1410.0
1912-08-09,1210.0
1912-08-10,1110.0
1912-08-11,1010.0
1912-08-12,984.0
1912-08-13,928.0
1912-08-14,998.0
1912-08-15,1200.0
1912-08-16,1570.0
1912-08-17,1370.0
1912-08-18,1370.0
1912-08-19,1110.0
1912-08-20,1040.0
1912-08-21,909.0
1912-08-22,850.0
1912-08-23,780.0
1912-08-24,686.0
1912-08-25,616.0
1912-08-26,1030.0
1912-08-27,1290.0
1912-08-28,960.0
1912-08-29,406.0
1912-08-30,546.0
1912-08-31,826.0
1912-09-01,826.0
1912-09-02,686.0
1912-09-03,616.0
1912-09-04,546.0
1912-09-05,964.0
1912-09-06,1150.0
1912-09-07,276.0
1912-09-08,276.0
1912-09-09,276.0
1912-09-10,336.0
1912-09-11,414.0
1912-09-12,352.0
1912-09-13,292.0
1912-09-14,292.0
1912-09-15,690.0
1912-09-16,830.0
1912-09-17,830.0
1912-09-18,846.0
1912-09-19,860.0
1912-09-20,790.0
1912-09-21,860.0
1912-09-22,760.0
1912-09-23,734.0
1912-09-24,755.0
1912-09-25,774.0
1912-09-26,824.0
1912-09-27,824.0
1912-09-28,842.0
1912-09-29,856.0
1912-09-30,856.0
1912-10-01,856.0
1912-10-02,856.0
1912-10-03,856.0
1912-10-04,856.0
1912-10-05,856.0
1912-10-06,926.0
1912-10-07,938.0
1912-10-08,1020.0
1912-10-09,949.0
1912-10-10,879.0
1912-10-11,949.0
1912-10-12,987.0
1912-10-13,1100.0
1912-10-14,1030.0
1912-10-15,1050.0
1912-10-16,1050.0
1912-10-17,1050.0
1912-10-18,1050.0
1912-10-19,1050.0
1912-10-20,1050.0
1912-10-21,1050.0
1912-10-22,980.0
1912-10-23,980.0
1912-10-24,980.0
1912-10-25,980.0
1912-10-26,980.0
1912-10-27,980.0
1912-10-28,1050.0
1912-10-29,1050.0
1912-10-30,980.0
1912-10-31,1050.0
1912-11-01,980.0
1912-11-02,840.0
1912-11-03,840.0
1912-11-04,980.0
1912-11-05,980.0
1912-11-06,980.0
1912-11-07,910.0
1912-11-08,980.0
1912-11-09,1050.0
1912-11-10,710.0
1912-11-11,480.0
1912-11-12,590.0
1912-11-13,480.0
1912-11-14,400.0
1912-11-15,400.0
1912-11-16,350.0
1912-11-17,350.0
1912-11-18,350.0
1912-11-19,350.0
1912-11-20,350.0
1912-11-21,350.0
1912-11-22,350.0
1912-11-23,350.0
1912-11-24,350.0
1912-11-25,350.0
1912-11-26,350.0
1912-11-27,350.0
1912-11-28,350.0
1912-11-29,350.0
1912-11-30,350.0
1912-12-01,480.0
1912-12-02,480.0
1912-12-03,480.0
1912-12-04,480.0
1912-12-05,480.0
1912-12-06,480.0
1912-12-07,480.0
1912-12-08,480.0
1912-12-09,480.0
1912-12-10,480.0
1912-12-11,480.0
1912-12-12,480.0
1912-12-13,480.0
1912-12-14,480.0
1912-12-15,480.0
1912-12-16,480.0
1912-12-17,480.0
1912-12-18,480.0
1912-12-19,480.0
1912-12-20,480.0
1912-12-21,480.0
1912-12-22,480.0
1912-12-23,480.0
1912-12-24,480.0
1912-12-25,480.0
1912-12-26,480.0
1912-12-27,480.0
1912-12-28,480.0
1912-12-29,480.0
1912-12-30,480.0
1912-12-31,480.0
1913-01-01,450.0
1913-01-02,450.0
1913-01-03,450.0
1913-01-04,450.0
1913-01-05,450.0
1913-01-06,450.0
1913-01-07,450.0
1913-01-08,450.0
1913-01-09,450.0
1913-01-10,450.0
1913-01-11,450.0
1913-01-12,450.0
1913-01-13,450.0
1913-01-14,450.0
1913-01-15,450.0
1913-01-16,450.0
1913-01-17,450.0
1913-01-18,450.0
1913-01-19,450.0
1913-01-20,450.0
1913-01-21,450.0
1913-01-22,450.0
1913-01-23,450.0
1913-01-24,450.0
1913-01-25,450.0
1913-01-26,450.0
1913-01-27,450.0
1913-01-28,450.0
1913-01-29,450.0
1913-01-30,450.0
1913-01-31,450.0
1913-02-01,420.0
1913-02-02,420.0
1913-02-03,420.0
1913-02-04,420.0
1913-02-05,420.0
1913-02-06,420.0
1913-02-07,420.0
1913-02-08,420.0
1913-02-09,420.0
1913-02-10,420.0
1913-02-11,420.0
1913-02-12,420.0
1913-02-13,420.0
1913-02-14,420.0
1913-02-15,420.0
1913-02-16,420.0
1913-02-17,420.0
1913-02-18,420.0
1913-02-19,420.0
1913-02-20,420.0
1913-02-21,420.0
1913-02-22,420.0
1913-02-23,420.0
1913-02-24,420.0
1913-02-25,420.0
1913-02-26,420.0
1913-02-27,420.0
1913-02-28,420.0
1913-03-01,590.0
1913-03-02,590.0
1913-03-03,590.0
1913-03-04,590.0
1913-03-05,590.0
1913-03-06,590.0
1913-03-07,590.0
1913-03-08,590.0
1913-03-09,590.0
1913-03-10,590.0
1913-03-11,590.0
1913-03-12,590.0
1913-03-13,590.0
1913-03-14,590.0
1913-03-15,590.0
1913-03-16,590.0
1913-03-17,590.0
1913-03-18,590.0
1913-03-19,590.0
1913-03-20,590.0
1913-03-21,590.0
1913-03-22,590.0
1913-03-23,590.0
1913-03-24,590.0
1913-03-25,590.0
1913-03-26,590.0
1913-03-27,590.0
1913-03-28,590.0
1913-03-29,590.0
1913-03-30,590.0
1913-03-31,590.0
1913-04-01,850.0
1913-04-02,850.0
1913-04-03,850.0
1913-04-04,850.0
1913-04-05,850.0
1913-04-06,850.0
1913-04-07,850.0
1913-04-08,850.0
1913-04-09,850.0
1913-04-10,850.0
1913-04-11,850.0
1913-04-12,850.0
1913-04-13,850.0
1913-04-14,850.0
1913-04-15,3260.0
1913-04-16,3740.0
1913-04-17,4460.0
1913-04-18,4060.0
1913-04-19,4060.0
1913-04-20,4380.0
1913-04-21,4380.0
1913-04-22,4220.0
1913-04-23,3500.0
1913-04-24,2380.0
1913-04-25,1980.0
1913-04-26,1760.0
1913-04-27,2380.0
1913-04-28,3260.0
1913-04-29,3980.0
1913-04-30,4380.0
1913-05-01,4630.0
1913-05-02,4380.0
1913-05-03,3660.0
1913-05-04,3260.0
1913-05-05,3500.0
1913-05-06,4140.0
1913-05-07,4880.0
1913-05-08,4880.0
1913-05-09,4030.0
1913-05-10,4230.0
1913-05-11,5010.0
1913-05-12,5840.0
1913-05-13,5920.0
1913-05-14,5180.0
1913-05-15,4030.0
1913-05-16,3630.0
1913-05-17,3630.0
1913-05-18,4060.0
1913-05-19,4600.0
1913-05-20,5550.0
1913-05-21,3300.0
1913-05-22,3000.0
1913-05-23,3330.0
1913-05-24,4690.0
1913-05-25,5210.0
1913-05-26,5970.0
1913-05-27,6640.0
1913-05-28,5870.0
1913-05-29,6120.0
1913-05-30,6180.0
1913-05-31,6000.0
1913-06-01,5930.0
1913-06-02,5770.0
1913-06-03,5600.0
1913-06-04,5120.0
1913-06-05,5040.0
1913-06-06,4400.0
1913-06-07,4000.0
1913-06-08,3680.0
1913-06-09,3840.0
1913-06-10,4250.0
1913-06-11,5900.0
1913-06-12,4990.0
1913-06-13,4170.0
1913-06-14,3760.0
1913-06-15,4200.0
1913-06-16,4540.0
1913-06-17,4760.0
1913-06-18,4880.0
1913-06-19,5050.0
1913-06-20,4960.0
1913-06-21,4630.0
1913-06-22,3970.0
1913-06-23,3740.0
1913-06-24,3430.0
1913-06-25,3190.0
1913-06-26,3030.0
1913-06-27,2950.0
1913-06-28,2710.0
1913-06-29,2630.0
1913-06-30,2390.0
1913-07-01,2060.0
1913-07-02,1770.0
1913-07-03,1730.0
1913-07-04,1550.0
1913-07-05,1360.0
1913-07-06,1340.0
1913-07-07,1130.0
1913-07-08,1050.0
1913-07-09,1060.0
1913-07-10,1070.0
1913-07-11,1070.0
1913-07-12,1320.0
1913-07-13,1200.0
1913-07-14,1020.0
1913-07-15,723.0
1913-07-16,934.0
1913-07-17,979.0
1913-07-18,953.0
1913-07-19,1090.0
1913-07-20,1230.0
1913-07-21,1460.0
1913-07-22,1520.0
1913-07-23,1640.0
1913-07-24,1870.0
1913-07-25,1420.0
1913-07-26,1180.0
1913-07-27,1000.0
1913-07-28,831.0
1913-07-29,722.0
1913-07-30,974.0
1913-07-31,727.0
1913-08-01,571.0
1913-08-02,514.0
1913-08-03,514.0
1913-08-04,464.0
1913-08-05,439.0
1913-08-06,414.0
1913-08-07,483.0
1913-08-08,414.0
1913-08-09,356.0
1913-08-10,414.0
1913-08-11,439.0
1913-08-12,662.0
1913-08-13,711.0
1913-08-14,602.0
1913-08-15,477.0
1913-08-16,430.0
1913-08-17,430.0
1913-08-18,407.0
1913-08-19,384.0
1913-08-20,384.0
1913-08-21,517.0
1913-08-22,643.0
1913-08-23,730.0
1913-08-24,960.0
1913-08-25,698.0
1913-08-26,577.0
1913-08-27,704.0
1913-08-28,521.0
1913-08-29,734.0
1913-08-30,540.0
1913-08-31,540.0
1913-09-01,515.0
1913-09-02,515.0
1913-09-03,515.0
1913-09-04,540.0
1913-09-05,593.0
1913-09-06,769.0
1913-09-07,796.0
1913-09-08,766.0
1913-09-09,856.0
1913-09-10,946.0
1913-09-11,886.0
1913-09-12,856.0
1913-09-13,766.0
1913-09-14,736.0
1913-09-15,801.0
1913-09-16,831.0
1913-09-17,801.0
1913-09-18,801.0
1913-09-19,741.0
1913-09-20,691.0
1913-09-21,666.0
1913-09-22,716.0
1913-09-23,854.0
1913-09-24,819.0
1913-09-25,819.0
1913-09-26,819.0
1913-09-27,819.0
1913-09-28,819.0
1913-09-29,819.0
1913-09-30,789.0
1913-10-01,759.0
1913-10-02,849.0
1913-10-03,849.0
1913-10-04,879.0
1913-10-05,879.0
1913-10-06,879.0
1913-10-07,819.0
1913-10-08,759.0
1913-10-09,734.0
1913-10-10,818.0
1913-10-11,900.0
1913-10-12,900.0
1913-10-13,950.0
1913-10-14,950.0
1913-10-15,900.0
1913-10-16,900.0
1913-10-17,850.0
1913-10-18,850.0
1913-10-19,816.0
1913-10-20,756.0
1913-10-21,728.0
1913-10-22,678.0
1913-10-23,728.0
1913-10-24,690.0
1913-10-25,665.0
1913-10-26,647.0
1913-10-27,622.0
1913-10-28,597.0
1913-10-29,597.0
1913-10-30,597.0
1913-10-31,791.0
1913-11-01,792.0
1913-11-02,741.0
1913-11-03,771.0
1913-11-04,850.0
1913-11-05,800.0
1913-11-06,825.0
1913-11-07,850.0
1913-11-08,850.0
1913-11-09,850.0
1913-11-10,850.0
1913-11-11,800.0
1913-11-12,850.0
1913-11-13,850.0
1913-11-14,850.0
1913-11-15,800.0
1913-11-16,750.0
1913-11-17,750.0
1913-11-18,750.0
1913-11-19,750.0
1913-11-20,750.0
1913-11-21,750.0
1913-11-22,750.0
1913-11-23,680.0
1913-11-24,431.0
1913-11-25,431.0
1913-11-26,431.0
1913-11-27,431.0
1913-11-28,431.0
1913-11-29,431.0
1913-11-30,431.0
1913-12-01,525.0
1913-12-02,525.0
1913-12-03,525.0
1913-12-04,525.0
1913-12-05,525.0
1913-12-06,525.0
1913-12-07,525.0
1913-12-08,525.0
1913-12-09,525.0
1913-12-10,525.0
1913-12-11,525.0
1913-12-12,525.0
1913-12-13,525.0
1913-12-14,525.0
1913-12-15,525.0
1913-12-16,525.0
1913-12-17,525.0
1913-12-18,525.0
1913-12-19,525.0
1913-12-20,525.0
1913-12-21,525.0
1913-12-22,525.0
1913-12-23,525.0
1913-12-24,525.0
1913-12-25,525.0
1913-12-26,525.0
1913-12-27,525.0
1913-12-28,525.0
1913-12-29,525.0
1913-12-30,525.0
1913-12-31,525.0
1914-01-01,475.0
1914-01-02,475.0
1914-01-03,475.0
1914-01-04,475.0
1914-01-05,475.0
1914-01-06,475.0
1914-01-07,475.0
1914-01-08,475.0
1914-01-09,475.0
1914-01-10,475.0
1914-01-11,475.0
1914-01-12,475.0
1914-01-13,475.0
1914-01-14,475.0
1914-01-15,475.0
1914-01-16,475.0
1914-01-17,475.0
1914-01-18,475.0
1914-01-19,475.0
1914-01-20,475.0
1914-01-21,475.0
1914-01-22,475.0
1914-01-23,475.0
1914-01-24,475.0
1914-01-25,475.0
1914-01-26,475.0
1914-01-27,475.0
1914-01-28,475.0
1914-01-29,475.0
1914-01-30,475.0
1914-01-31,475.0
1914-02-01,450.0
1914-02-02,450.0
1914-02-03,450.0
1914-02-04,450.0
1914-02-05,450.0
1914-02-06,450.0
1914-02-07,450.0
1914-02-08,450.0
1914-02-09,450.0
1914-02-10,450.0
1914-02-11,450.0
1914-02-12,450.0
1914-02-13,450.0
1914-02-14,450.0
1914-02-15,450.0
1914-02-16,450.0
1914-02-17,450.0
1914-02-18,450.0
1914-02-19,450.0
1914-02-20,450.0
1914-02-21,450.0
1914-02-22,450.0
1914-02-23,450.0
1914-02-24,450.0
1914-02-25,450.0
1914-02-26,450.0
1914-02-27,450.0
1914-02-28,450.0
1914-03-01,900.0
1914-03-02,900.0
1914-03-03,900.0
1914-03-04,900.0
1914-03-05,900.0
1914-03-06,900.0
1914-03-07,900.0
1914-03-08,900.0
1914-03-09,900.0
1914-03-10,900.0
1914-03-11,900.0
1914-03-12,900.0
1914-03-13,900.0
1914-03-14,900.0
1914-03-15,900.0
1914-03-16,900.0
1914-03-17,900.0
1914-03-18,900.0
1914-03-19,900.0
1914-03-20,900.0
1914-03-21,900.0
1914-03-22,900.0
1914-03-23,900.0
1914-03-24,900.0
1914-03-25,900.0
1914-03-26,900.0
1914-03-27,900.0
1914-03-28,900.0
1914-03-29,900.0
1914-03-30,900.0
1914-03-31,900.0
1914-04-01,1300.0
1914-04-02,1300.0
1914-04-03,1400.0
1914-04-04,1700.0
1914-04-05,1700.0
1914-04-06,1700.0
1914-04-07,2200.0
1914-04-08,2250.0
1914-04-09,2150.0
1914-04-10,2050.0
1914-04-11,2000.0
1914-04-12,1910.0
1914-04-13,1910.0
1914-04-14,2000.0
1914-04-15,2250.0
1914-04-16,2520.0
1914-04-17,2410.0
1914-04-18,2100.0
1914-04-19,1910.0
1914-04-20,2100.0
1914-04-21,2520.0
1914-04-22,2780.0
1914-04-23,3120.0
1914-04-24,2520.0
1914-04-25,2580.0
1914-04-26,3000.0
1914-04-27,2920.0
1914-04-28,2480.0
1914-04-29,2320.0
1914-04-30,2480.0
1914-05-01,2440.0
1914-05-02,2320.0
1914-05-03,2270.0
1914-05-04,2870.0
1914-05-05,3410.0
1914-05-06,3830.0
1914-05-07,4080.0
1914-05-08,5500.0
1914-05-09,6910.0
1914-05-10,7990.0
1914-05-11,8310.0
1914-05-12,7670.0
1914-05-13,7810.0
1914-05-14,7890.0
1914-05-15,7480.0
1914-05-16,7400.0
1914-05-17,7310.0
1914-05-18,7730.0
1914-05-19,7980.0
1914-05-20,8500.0
1914-05-21,9400.0
1914-05-22,10200.0
1914-05-23,11200.0
1914-05-24,11500.0
1914-05-25,10300.0
1914-05-26,9620.0
1914-05-27,10000.0
1914-05-28,10200.0
1914-05-29,9350.0
1914-05-30,10300.0
1914-05-31,10900.0
1914-06-01,11800.0
1914-06-02,12600.0
1914-06-03,11700.0
1914-06-04,10800.0
1914-06-05,9520.0
1914-06-06,8780.0
1914-06-07,7700.0
1914-06-08,6790.0
1914-06-09,5960.0
1914-06-10,6040.0
1914-06-11,7200.0
1914-06-12,8450.0
1914-06-13,9360.0
1914-06-14,9530.0
1914-06-15,9940.0
1914-06-16,10200.0
1914-06-17,9110.0
1914-06-18,9200.0
1914-06-19,8950.0
1914-06-20,8860.0
1914-06-21,8530.0
1914-06-22,8030.0
1914-06-23,7540.0
1914-06-24,7040.0
1914-06-25,6540.0
1914-06-26,6210.0
1914-06-27,5710.0
1914-06-28,5460.0
1914-06-29,5290.0
1914-06-30,5290.0
1914-07-01,4880.0
1914-07-02,4840.0
1914-07-03,4360.0
1914-07-04,4240.0
1914-07-05,4490.0
1914-07-06,4320.0
1914-07-07,4240.0